Location: Ferchesar
(52.6477°N, 12.4298°E)
Time: 15:12:14
(UTC+01:00)

Vanguard 3 - Pass Details

Date: 10 December 2021
Orbit: 508 x 3260 km, 33.3° (Epoch: 25 January)

Event Time Altitude Azimuth Distance (km) Brightness Sun altitude
Exits shadow 04:36:14 27° 226° (SW) 4,865 10.6 -31.1°
Maximum altitude 04:45:35 40° 184° (S) 4,120 10.5 -29.7°
Drops below altitude 10° 05:00:44 10° 123° (ESE) 5,347 12.0 -27.4°
Sets 05:04:39 0° 116° (ESE) 6,043 12.6 -26.8°
